Flag for China Weather past 2 weeks in Lanzhou, Gansu, China

Now
12 °F

Clear.


Feels Like: 3 °F
Forecast: 18 / 31 °F
Wind: 6 mph from Northwest

Location: Lanzhou / Zhongchuan

Current Time: Dec 20, 2014 at 1:58:07 AM

Latest Report: Dec 20, 2014 at 1:00 AM


Visibility: 10 mi

Pressure: 30.09 "Hg

Humidity: 44%

Dew point: -6 °F

Location of LanzhouLocation

Historic Weather in Lanzhou — Graph

°F

Lanzhou temperature yesterday

Maximum temperature yesterday: 32 °F (at 4:00 PM)
Minimum temperature yesterday: 3 °F (at 8:00 AM)
Average temperature yesterday: 16 °F

Past Weeks' High & Low Weather Summary

 TemperatureHumidityPressure
High41 °F (Dec 5, 5:00 PM)85% (Dec 5, 1:00 AM)30.60 "Hg (Dec 5, 1:00 AM)
Low-2 °F (Dec 16, 4:00 AM)18% (Dec 14, 4:00 PM)29.86 "Hg (Dec 8, 2:00 PM)
Average18 °F54%30.29 "Hg
* Reported Midnight between Dec 4 and Dec 5 — Midnight between Dec 19 and Dec 20, Lanzhou, Weather by CustomWeather, © 2014

Note: Actual official high and low records may vary slightly from our data, if they occured in-between our weather recording intervals... More about our weather records

Advertising

Lanzhou weather history for previous 24 hours

 ConditionsComfort  
Time TempWeatherWind HumidityBarometerVisibility
12:00 AM
Dec 20
12 °FClear.6 mph44%30.12 "Hg10 mi
11:00 PM
Dec 19
10 °FClear.6 mph47%30.15 "Hg10 mi
10:00 PM10 °FClear.6 mph47%30.15 "Hg5 mi
9:00 PM10 °FClear.6 mph47%30.15 "Hg5 mi
8:00 PM10 °FClear.6 mph47%30.18 "Hg5 mi
7:00 PM18 °FClear.No wind35%30.15 "Hg5 mi
6:00 PM27 °FClear.3 mph26%30.15 "Hg5 mi
5:00 PM30 °FPassing clouds.3 mph22%30.15 "HgN/A
4:00 PM32 °FPassing clouds.3 mph21%30.18 "HgN/A
3:00 PM30 °FPassing clouds.3 mph20%30.18 "HgN/A
2:00 PM30 °FSunny.1 mph20%30.21 "Hg10 mi
1:00 PM28 °FSunny.3 mph22%30.24 "Hg10 mi
12:00 PM25 °FPassing clouds.3 mph23%30.27 "HgN/A
11:00 AM23 °FPassing clouds.3 mph28%30.30 "HgN/A
10:00 AM19 °FSunny.No wind29%30.30 "Hg10 mi
9:00 AM10 °FClear.3 mph47%30.27 "Hg10 mi
8:00 AM3 °FClear.3 mph60%30.27 "Hg10 mi
7:00 AM5 °FClear.3 mph55%30.24 "Hg10 mi
6:00 AM9 °FClear.3 mph51%30.21 "Hg10 mi
5:00 AM10 °FClear.6 mph47%30.21 "Hg10 mi
4:00 AM7 °FClear.6 mph56%30.24 "Hg10 mi
3:00 AM9 °FClear.3 mph56%30.24 "Hg10 mi
2:00 AM10 °FClear.8 mph47%30.24 "Hg10 mi
1:00 AM10 °FClear.8 mph47%30.24 "Hg10 mi
Weather by CustomWeather, © 2014

See weather overviewHow to use our weather pages